FENGYUN 1C DEB, 29982

Orbit data source: Space-Track

FENGYUN 1C DEB, 29982 is space debris in SSO originally from a launch on Mon, 10 May 1999 UTC launched from the Taiyaun Space Center, China (TSC). Fengyun 1C debris stems from the Chinese weather satellite Fengyun-1C, which was intentionally destroyed by a Chinese anti-satellite missile in 2007. This event dramatically increased the amount of space debris, with thousands of trackable fragments posing hazards to satellites and human spaceflight. The Fengyun 1C debris cloud has become a focal point in discussions about space sustainability and the need for international regulations to prevent the creation of new debris.

Loading next visibility...
Identifier
29982, 1999-025LG
Orbit
SSO
Country
Flag of CNCN / PRC
Related business
Manufacturer
Unknown
Mission
Spacecraft
Bus & Motor
Unknown
Mass
Unknown
Launch date (UTC)
1999-05-10 (26 years ago)
Launch vehicle
Unknown
Launch site
Taiyaun Space Center, China (TSC)
Object type
Payload
Rocket body
Debris
Shape & HBR
Unknown shape, 0.1 m
Radar Cross Section
Small (<0.1 m²)

Expand to show TLE details & history
Last TLE update: 21 hours ago

TLE from 21 hours ago
0 FENGYUN 1C DEB
1 29982U 99025LG  25310.08236561  .00003756  00000-0  61569-3 0  9998
2 29982  99.4034 126.0127 0123610  39.8589  79.6430 14.66508005997509
Epoch: 2025-11-06T01:58Z
TLE epoch observation values (Epoch: 2025-11-06T01:58:36.388Z)
Latitude
57.93953°
Longitude
-113.93764°
Altitude
667.331 km
Speed
7.537 km/s
True Right ascension
21h 25m 02s
True Declination
57° 46' 57"
Sunlit
Object was in daylight at epoch
Visualization orbit readout
Latitude
Unknown
Longitude
Unknown
Altitude
Unknown
Speed
Unknown
Apparent Right ascension
Unknown
Apparent Declination
Unknown
Sunlit
N/A
Visualization observer readout
Local Sidereal Time
19:04:02
Azimuth
Unknown
Elevation
Unknown
Doppler factor
Unknown
Orbital elements
Apogee altitude
756.484 km
Perigee altitude
582.255 km
Semi-major axis
7,047.506 km
Eccentricity
0.01236
Inclination
99.4034°
RAAN
126.0127°
Arg. of periapsis
39.8589°
True anomaly
81.04013°
Mean anomaly
79.643°
Eccentric anomaly
80.34119°
Mean motion
3.66851 °/min
Orbital period
98.13 mins
BSTAR
0.00061569
Loading maneuver chart data...
Computing Atmospheric mass density...

Documentation

Showing up to 5 results
|